Regional Weather Roundup
Issued by NWS

Home | Current Version | Previous Version | Graphics & Text | Print | Product List | Glossary On
Versions: 1 2 3 4 5 6 7 8 9 10 11 12 13 14 15 16 17 18 19 20 21 22 23 24 25 26 27 28 29 30 31 32 33 34 35 36 37 38 39 40 41 42 43 44 45 46 47 48 49 50
000
ASUS43 KMPX 010901
RWRMN
WEATHER ROUNDUP FOR MINNESOTA
NATIONAL WEATHER SERVICE TWIN CITIES/CHANHASSEN MN
400 AM CDT TUE SEP 01 2015


NOTE: "FAIR" INDICATES FEW OR NO CLOUDS BELOW 12,000 FEET WITH NO
SIGNIFICANT WEATHER AND/OR OBSTRUCTIONS TO VISIBILITY. N/A MEANS
CURRENT SKY AND/OR WEATHER CONDITIONS ARE NOT AVAILABLE.

MNZ060>063-068>070-011000-
   Twin Cities Metro

CITY           SKY/WX    TMP DP  RH WIND       PRES   REMARKS
TWIN CITIES    MOCLDY    74  67  78 S5        29.91S
ST PAUL        PTCLDY    70  69  97 E3        29.91S FOG
CRYSTAL        MOCLDY    74  68  81 S6        29.89S
BLAINE         MOCLDY    73  72  94 S6        29.90S
LAKEVILLE      PTCLDY    66  66 100 CALM      29.92S FOG
EDEN PRAIRIE   PTCLDY    71  67  87 S7        29.90S
SOUTH ST PAUL  PTCLDY    70  67  93 CALM      29.92R FOG
LAKE ELMO      FAIR      68  68 100 S5        29.92S FOG
$$
MNZ001>005-007-008-013>017-022>024-027-028-011000-
   Northwest Minnesota

CITY           SKY/WX    TMP DP  RH WIND       PRES   REMARKS
BEMIDJI        FOG       55  54  99 CALM      29.90R VSB 1/4
HALLOCK        CLEAR     52  46  82 CALM      29.84R
ROSEAU         MOCLDY    54  48  82 S3        29.85S
WARROAD        MOCLDY    55  52  88 S6        29.86R
THIEF RVR FALL PTCLDY   N/A N/A N/A CALM      29.87R
CROOKSTON      PTCLDY    54  52  94 S5        29.87S
FOSSTON        PTCLDY    57  55  94 S5        29.89S FOG
DETROIT LAKES  FOG       63  61  94 CALM      29.91S VSB 1/4
MOORHEAD       PTCLDY    57  57 100 CALM      29.89R FOG
PARK RAPIDS    CLOUDY    61  60  97 CALM      29.91R FOG
MAHNOMEN       FAIR      59  58  98 S6        29.88F
$$
MNZ006-009>011-018-025>026-011000-
   North Central Minnesota

CITY           SKY/WX    TMP DP  RH WIND       PRES   REMARKS
BAUDETTE       PTCLDY    54  52  93 S3        29.86R
FLAG ISLAND    PTCLDY    61  54  77 SW12      29.82S
INTL FALLS     PTCLDY    54  54 100 SW3       29.86S FOG
WASKISH        FOG       55  54  94 CALM      29.88S VSB 3/4
BIG FORK       FOG       57  57 100 CALM      29.90S VSB 1/4
LONGVILLE      MOCLDY    63  63 100 CALM      29.89S FOG
GRAND RAPIDS     N/A     66  63  88 CALM      29.90R
CRANE LAKE     MOCLDY    57  57 100 CALM      29.89S
ORR            MOCLDY    64  61  88 CALM      29.87S
COOK             N/A     63  63 100 CALM      29.90R FOG
WALKER         FOG       61  61 100 CALM      29.90S VSB 3/4
$$
MNZ012-019>021-037-011000-
   Northeast Minnesota

CITY           SKY/WX    TMP DP  RH WIND       PRES   REMARKS
DULUTH         CLOUDY    71  68  90 SW7       29.89S
ELY            CLOUDY    70  66  88 CALM      29.89S FOG
HIBBING        FOG       62  62 100 CALM      29.89S VSB 1/4
EVELETH        FOG       63  63 100 CALM      29.90S VSB 1/2
DULUTH HARBOR  CLOUDY    72  70  94 SW5       29.87R
TWO HARBORS    CLOUDY    72  66  83 SW3       29.87R
SILVER BAY     CLOUDY    68  66  94 CALM      29.86S FOG
GRAND MARAIS     N/A     60  59  96 CALM      29.86S
G MARAIS ARPRT MOCLDY    66  63  88 CALM      29.92S FOG
$$
MNZ029>031-032-039>041-046>048-054>057-064-011000-
   West Central Minnesota

CITY           SKY/WX    TMP DP  RH WIND       PRES   REMARKS
FERGUS FALLS   MOCLDY    64  64 100 NE3       29.89R
WHEATON        MOCLDY    61  59  94 CALM      29.91S FOG
MORRIS         MOCLDY    66  64  94 CALM      29.89R FOG
ALEXANDRIA     MOCLDY    66  65  96 N3        29.92R
ELBOW LAKE     FAIR      66  66  98 CALM      29.89S
WADENA         FOG       63  61  94 CALM      29.90R VSB 1/4
GLENWOOD       MOCLDY    66  66 100 CALM      29.91R
APPLETON       MOCLDY    68  64  88 CALM      29.88S
BENSON         FOG       64  63  94 CALM      29.89R VSB 1/4
ORTONVILLE     MOCLDY    66  64  94 N2        29.89R
MADISON        MOCLDY    66  64  94 CALM      29.89S FOG
WILLMAR        FAIR      70  70 100 CALM      29.90S
$$
MNZ033>034-036-042>043-049>051-058-059-011000-
   Central Minnesota

CITY           SKY/WX    TMP DP  RH WIND       PRES   REMARKS
ST CLOUD       MOCLDY    69  67  93 S5        29.88S
SAUK CENTRE    FAIR      68  67  98 CALM      29.90R FOG
PAYNESVILLE    CLOUDY    70  68  95 CALM      29.89F
AITKIN         MOCLDY    68  63  83 CALM      29.88R HAZE
PINE RIVER     MOCLDY    64  64 100 CALM      29.93R FOG
BRAINERD       MOCLDY    67  66  97 CALM      29.90R FOG
STAPLES        MOCLDY    63  63 100 CALM      29.90R FOG
LONG PRAIRIE   FAIR      64  64 100 CALM      29.91R FOG
LITTLE FALLS   MOCLDY    68  64  88 CALM      29.89S
LITCHFIELD     MOCLDY    70  70 100 CALM      29.90S
BUFFALO        MOCLDY    69  65  86 CALM      29.91S
MAPLE LAKE     MOCLDY    70  68  93 S3        29.90S
$$
MNZ037-044-045-052-053-011000-
   East Central Minnesota

CITY           SKY/WX    TMP DP  RH WIND       PRES   REMARKS
PRINCETON      MOCLDY    72  68  88 CALM      29.89S
MORA           MOCLDY    68  66  94 CALM      29.91S FOG
CAMBRIDGE      MOCLDY    73  64  73 S5        29.88S
RUSH CITY      MOCLDY    70  68  93 CALM      29.90S
MOOSE LAKE     CLOUDY    68  66  94 CALM      29.87S FOG
HINCKLEY       CLOUDY    70  70 100 CALM      29.90R FOG
CLOQUET        CLOUDY    72  66  83 SW5       29.90R
MCGREGOR       MOCLDY    70  68  94 CALM      29.89S
$$
MNZ071>073-080-081-089-090-097-098-011000-
   Southwest Minnesota

CITY           SKY/WX    TMP DP  RH WIND       PRES   REMARKS
MONTEVIDEO     MOCLDY    68  64  88 CALM      29.89F
GRANITE FALLS  MOCLDY    67  66  97 CALM      29.90R
CANBY          MOCLDY    68  66  94 CALM      29.90R
MARSHALL       MOCLDY    72  64  78 CALM      29.90S
REDWOOD FALLS  MOCLDY    68  66  93 CALM      29.89S
OLIVIA         MOCLDY    68  64  88 CALM      29.89S
PIPESTONE      MOCLDY    70  66  88 S3        29.92S
WINDOM         PTCLDY    68  64  88 CALM      29.92F
WORTHINGTON    PTCLDY    66  63  88 S6        29.92F
JACKSON        PTCLDY    66  64  94 S6        29.94S
TRACY          PTCLDY    70  67  89 SW9       29.90R
SLAYTON        PTCLDY    65  65  99 CALM      29.93S
$$
MNZ065>067-074>077-082>085-091>093-011000-
   South Central Minnesota

CITY           SKY/WX    TMP DP  RH WIND       PRES   REMARKS
MANKATO        PTCLDY    66  63  88 S5        29.93R
NEW ULM        PTCLDY    64  64 100 S5        29.90F
ST JAMES       PTCLDY    66  64  94 SE6       29.92S
FAIRMONT       PTCLDY    63  57  82 S6        29.93S
GLENCOE        PTCLDY    69  67  96 S3        29.90S
FARIBAULT      CLEAR     66  64  94 CALM      29.94S FOG
OWATONNA       CLEAR     68  64  88 S8        29.94S FOG
WASECA         CLEAR     63  61  94 CALM      29.95S FOG
ALBERT LEA       N/A     68  66  94 CALM      29.95S FOG
$$
MNZ078>079-086>088-094>096-011000-
   Southeast Minnesota

CITY           SKY/WX    TMP DP  RH WIND       PRES   REMARKS
ROCHESTER      FOG       67  66  97 S5        29.97S VSB 1/4
RED WING       CLEAR     72  70  94 CALM      29.92S FOG
STANTON        CLEAR     68  65  90 S3        29.92S FOG
DODGE CENTER   FOG       66  66 100 S5        29.96S VSB 1/4
WINONA         CLEAR     70  68  94 CALM      29.95R FOG
AUSTIN         FOG       70  68  94 CALM      29.96S VSB<1/4
PRESTON        CLEAR     69  67  94 S5        29.98R FOG
$$
ABBREVIATIONS USED IN REMARKS
   TC - TEMPERATURES IN CELSIUS
  WCI - WIND CHILL INDEX
   HX - HEAT INDEX
  VSB - VISIBILITY
$$



USA.gov is the U.S. government's official web portal to all federal, state and local government web resources and services.